This is the latest recevied weather packets stored in our database for station/object DH4SBM. If no packets are shown the sender has not sent any weather packets the latest 10 day(s).
| Time | Temp. | Humidity | Pressure | Rain* | Wind** | Luminosity | Snow |
|---|---|---|---|---|---|---|---|
| 1777449347 | 13.89° C | 49% | 1023.4 hPa | 0 mm | - | 570 W/m² | - |
| 1777448747 | 13.33° C | 50% | 1023.3 hPa | 0 mm | - | 548 W/m² | - |
| 1777448147 | 13.33° C | 50% | 1023.3 hPa | 0 mm | - | 483 W/m² | - |
| 1777447547 | 12.78° C | 52% | 1023.3 hPa | 0 mm | - | 497 W/m² | - |
| 1777446947 | 12.22° C | 53% | 1023.3 hPa | 0 mm | - | 473 W/m² | - |
| 1777446346 | 11.67° C | 54% | 1023.2 hPa | 0 mm | - | 448 W/m² | - |
| 1777445747 | 11.11° C | 54% | 1023.3 hPa | 0 mm | - | 420 W/m² | - |
| 1777445147 | 10.56° C | 55% | 1023.4 hPa | 0 mm | - | 380 W/m² | - |
| 1777444710 | 10.56° C | 55% | 1023.5 hPa | 0 mm | - | 267 W/m² | - |
| 1777444110 | 10.56° C | 56% | 1023.3 hPa | 0 mm | - | 332 W/m² | - |
| 1777443510 | 10° C | 56% | 1023.2 hPa | 0 mm | - | 44 W/m² | - |
| 1777442910 | 10° C | 56% | 1023.1 hPa | 0 mm | - | 279 W/m² | - |
| 1777442310 | 10° C | 57% | 1023.1 hPa | 0 mm | - | 251 W/m² | - |
| 1777441710 | 9.44° C | 57% | 1023 hPa | 0 mm | - | 221 W/m² | - |
| 1777441110 | 9.44° C | 57% | 1022.9 hPa | 0 mm | - | 197 W/m² | - |
| 1777440508 | 9.44° C | 58% | 1022.9 hPa | 0 mm | - | 169 W/m² | - |
| 1777439908 | 9.44° C | 58% | 1022.9 hPa | 0 mm | - | 69 W/m² | - |
| 1777439308 | 8.89° C | 60% | 1022.6 hPa | 0 mm | - | 118 W/m² | - |
| 1777438708 | 8.89° C | 60% | 1022.5 hPa | 0 mm | - | 95 W/m² | - |
| 1777438108 | 8.89° C | 60% | 1022.2 hPa | 0 mm | - | 70 W/m² | - |
| 1777437508 | 8.89° C | 60% | 1022.1 hPa | 0 mm | - | 37 W/m² | - |
| 1777436908 | 8.89° C | 60% | 1022 hPa | 0 mm | - | 16 W/m² | - |
| 1777436744 | 8.89° C | 60% | 1022 hPa | 0 mm | - | 16 W/m² | - |
| 1777436143 | 9.44° C | 59% | 1021.9 hPa | 0 mm | - | 11 W/m² | - |
| 1777435543 | 9.44° C | 58% | 1021.9 hPa | 0 mm | - | 7 W/m² | - |
* Rain latest hour (hover to see other rain measurements)
** Current wind speed in m/s (hover to see current wind gust speed)